timestamp,surface_pressure_avg,surface_temp_avg,battery_voltage,lat,long
2020-07-06 00:09:01+00:00,372.2495,14.09,13.37,47.84626,-54.09684
2020-07-06 00:19:01+00:00,372.9147,14.1,12.97,47.84626,-54.09684
2020-07-06 00:29:01+00:00,373.1729,14.1,12.97,47.84626,-54.09684
2020-07-06 00:39:01+00:00,369.8331,14.17,12.97,47.84626,-54.09684
2020-07-06 00:49:01+00:00,368.5446,14.2,12.97,47.84626,-54.09684
2020-07-06 00:59:01+00:00,365.2612,14.2,12.97,47.84626,-54.09684
2020-07-06 01:09:01+00:00,362.1761,14.2,12.97,47.84626,-54.09684
2020-07-06 01:19:01+00:00,357.7679,14.24,12.73,47.84626,-54.09684
2020-07-06 01:29:01+00:00,354.4897,14.25,12.73,47.84626,-54.09684
2020-07-06 01:39:01+00:00,351.8929,14.25,12.73,47.84626,-54.09684
2020-07-06 01:49:01+00:00,349.0862,14.26,12.73,47.84626,-54.09684
2020-07-06 01:59:01+00:00,342.2663,14.23,12.73,47.84626,-54.09684
2020-07-06 02:09:01+00:00,336.9481,14.21,12.73,47.84626,-54.09684
2020-07-06 02:19:01+00:00,331.038,14.24,12.73,47.84626,-54.09684
2020-07-06 02:29:01+00:00,323.228,14.25,12.73,47.84626,-54.09684
2020-07-06 02:39:01+00:00,313.3196,14.26,12.73,47.84626,-54.09684
2020-07-06 02:49:01+00:00,302.5497,14.28,12.73,47.84626,-54.09684
2020-07-06 02:59:01+00:00,295.278,14.29,12.73,47.84626,-54.09684
2020-07-06 03:09:01+00:00,287.3347,14.29,12.73,47.84626,-54.09684
2020-07-06 03:19:01+00:00,278.0964,14.2,12.73,47.84626,-54.09684
2020-07-06 03:29:01+00:00,267.8831,14.34,12.73,47.84626,-54.09684
2020-07-06 03:39:01+00:00,258.6314,14.3,12.73,47.84626,-54.09684
2020-07-06 03:49:01+00:00,251.1397,14.38,12.73,47.84626,-54.09684
2020-07-06 03:59:01+00:00,242.3548,14.72,12.73,47.84626,-54.09684
2020-07-06 04:09:01+00:00,231.1048,14.86,12.73,47.84626,-54.09684
2020-07-06 04:19:01+00:00,221.6964,14.88,12.73,47.84626,-54.09684
2020-07-06 04:29:01+00:00,218.1981,14.8,12.73,47.84626,-54.09684
2020-07-06 04:39:01+00:00,210.9664,14.7,12.73,47.84626,-54.09684
2020-07-06 04:49:01+00:00,199.2298,14.7,12.73,47.84626,-54.09684
2020-07-06 04:59:01+00:00,194.0381,14.7,12.73,47.84626,-54.09684
2020-07-06 05:09:01+00:00,193.0948,14.7,12.73,47.84626,-54.09684
2020-07-06 05:19:01+00:00,186.6082,14.66,12.65,47.84626,-54.09684
2020-07-06 05:29:01+00:00,181.6031,14.6,12.65,47.84626,-54.09684
2020-07-06 05:39:01+00:00,182.3632,14.6,12.65,47.84626,-54.09684
2020-07-06 05:49:01+00:00,178.7681,14.57,12.65,47.84626,-54.09684
2020-07-06 05:59:01+00:00,176.5081,14.59,12.65,47.84626,-54.09684
2020-07-06 06:09:01+00:00,179.3515,14.56,12.65,47.84626,-54.09684
2020-07-06 06:19:01+00:00,181.3648,14.4,12.65,47.84626,-54.09684
2020-07-06 06:29:01+00:00,181.7148,14.29,12.65,47.84626,-54.09684
2020-07-06 06:39:01+00:00,182.0448,14.0,12.65,47.84626,-54.09684
2020-07-06 06:49:01+00:00,183.1431,13.9,12.65,47.84626,-54.09684
2020-07-06 06:59:01+00:00,185.5914,13.9,12.65,47.84626,-54.09684
2020-07-06 07:09:01+00:00,188.3914,13.92,12.65,47.84626,-54.09684
2020-07-06 07:19:01+00:00,189.69799999999998,13.96,12.65,47.84626,-54.09684
2020-07-06 07:29:01+00:00,188.0599,13.97,12.65,47.84626,-54.09684
2020-07-06 07:39:01+00:00,188.2048,14.04,12.65,47.84626,-54.09684
2020-07-06 07:49:01+00:00,191.9681,14.1,12.65,47.84626,-54.09684
2020-07-06 07:59:01+00:00,196.5298,14.1,12.65,47.84626,-54.09684
2020-07-06 08:09:01+00:00,197.9182,14.13,12.65,47.84626,-54.09684
2020-07-06 08:19:01+00:00,198.5298,14.2,12.65,47.84626,-54.09684
2020-07-06 08:29:01+00:00,205.0114,14.2,12.65,47.84626,-54.09684
2020-07-06 08:39:01+00:00,212.4264,14.2,12.65,47.84626,-54.09684
2020-07-06 08:49:01+00:00,214.268,14.22,12.65,47.84626,-54.09684
2020-07-06 08:59:01+00:00,216.9881,14.28,12.65,47.84626,-54.09684
2020-07-06 09:09:01+00:00,225.2464,14.2,12.65,47.84626,-54.09684
2020-07-06 09:19:01+00:00,231.063,14.2,12.65,47.84626,-54.09684
2020-07-06 09:29:01+00:00,235.4398,14.2,12.65,47.84626,-54.09684
2020-07-06 09:39:01+00:00,241.6131,14.2,12.65,47.84626,-54.09684
2020-07-06 09:49:01+00:00,248.6181,14.2,12.65,47.84626,-54.09684
2020-07-06 09:59:01+00:00,254.3981,14.2,12.65,47.84626,-54.09684
2020-07-06 10:09:01+00:00,262.623,13.96,12.65,47.84626,-54.09684
2020-07-06 10:19:01+00:00,269.2114,13.46,12.73,47.84626,-54.09684
2020-07-06 10:29:01+00:00,273.8997,14.09,12.73,47.84626,-54.09684
2020-07-06 10:39:01+00:00,281.7014,13.13,12.73,47.84626,-54.09684
2020-07-06 10:49:01+00:00,291.5231,13.04,12.73,47.84626,-54.09684
2020-07-06 10:59:01+00:00,293.4313,13.73,12.73,47.84626,-54.09684
2020-07-06 11:09:01+00:00,295.4514,13.9,12.73,47.84626,-54.09684
2020-07-06 11:19:01+00:00,304.0047,12.73,13.29,47.84626,-54.09684
2020-07-06 11:29:01+00:00,314.2164,13.44,13.29,47.84626,-54.09684
2020-07-06 11:39:01+00:00,315.5696,13.12,13.29,47.84626,-54.09684
2020-07-06 11:49:01+00:00,316.673,12.0,13.29,47.84626,-54.09684
2020-07-06 11:59:01+00:00,326.2847,11.71,13.29,47.84626,-54.09684
2020-07-06 12:09:01+00:00,329.6396,11.99,13.29,47.84626,-54.09684
2020-07-06 12:19:01+00:00,326.0429,11.99,13.44,47.84626,-54.09684
2020-07-06 12:29:01+00:00,329.658,11.9,13.44,47.84626,-54.09684
2020-07-06 12:39:01+00:00,335.3347,12.07,13.44,47.84626,-54.09684
2020-07-06 12:49:01+00:00,328.6413,12.66,13.44,47.84626,-54.09684
2020-07-06 12:59:01+00:00,323.273,12.2,13.44,47.84626,-54.09684
2020-07-06 13:09:01+00:00,329.5829,12.45,13.44,47.84626,-54.09684
2020-07-06 13:19:01+00:00,329.7913,13.39,13.84,47.84626,-54.09684
2020-07-06 13:29:01+00:00,322.0096,13.42,13.84,47.84626,-54.09684
2020-07-06 13:39:01+00:00,324.0496,12.29,13.84,47.84626,-54.09684
2020-07-06 13:49:01+00:00,325.9663,13.04,13.84,47.84626,-54.09684
2020-07-06 13:59:01+00:00,316.4114,13.94,13.84,47.84626,-54.09684
2020-07-06 14:09:01+00:00,306.6813,13.23,13.84,47.84626,-54.09684
2020-07-06 14:19:01+00:00,310.4097,12.2,14.24,47.84626,-54.09684
2020-07-06 14:29:01+00:00,307.8664,12.85,14.24,47.84626,-54.09684
2020-07-06 14:39:01+00:00,295.6263,13.6,14.24,47.84626,-54.09684
2020-07-06 14:49:01+00:00,290.2447,13.42,14.24,47.84626,-54.09684
2020-07-06 14:59:01+00:00,291.6381,13.45,14.24,47.84626,-54.09684
2020-07-06 15:09:01+00:00,283.403,14.01,14.24,47.84626,-54.09684
2020-07-06 15:19:01+00:00,266.4497,14.1,14.48,47.84626,-54.09684
2020-07-06 15:29:01+00:00,258.9864,13.95,14.48,47.84626,-54.09684
2020-07-06 15:39:01+00:00,255.4197,13.82,14.48,47.84626,-54.09684
2020-07-06 15:49:01+00:00,242.2214,14.07,14.48,47.84626,-54.09684
2020-07-06 15:59:01+00:00,227.1664,14.1,14.48,47.84626,-54.09684
2020-07-06 16:09:01+00:00,220.5547,14.1,14.48,47.84626,-54.09684
2020-07-06 16:19:01+00:00,216.5714,14.1,14.32,47.84626,-54.09684
2020-07-06 16:29:01+00:00,207.6231,14.14,14.32,47.84626,-54.09684
2020-07-06 16:39:01+00:00,195.8765,14.15,14.32,47.84626,-54.09684
2020-07-06 16:49:01+00:00,189.6198,14.16,14.32,47.84626,-54.09684
2020-07-06 16:59:01+00:00,187.9315,14.1,14.32,47.84626,-54.09684
2020-07-06 17:09:01+00:00,183.2465,14.1,14.32,47.84626,-54.09684
2020-07-06 17:19:01+00:00,173.4998,14.09,14.16,47.84626,-54.09684
2020-07-06 17:29:01+00:00,168.9516,14.1,14.16,47.84626,-54.09684
2020-07-06 17:39:01+00:00,170.5064,14.1,14.16,47.84626,-54.09684
2020-07-06 17:49:01+00:00,166.5182,14.1,14.16,47.84626,-54.09684
2020-07-06 17:59:01+00:00,159.7148,14.17,14.16,47.84626,-54.09684
2020-07-06 18:09:01+00:00,161.9015,14.17,14.16,47.84626,-54.09684
2020-07-06 18:19:01+00:00,167.2265,14.17,14.08,47.84626,-54.09684
2020-07-06 18:29:01+00:00,165.8565,14.19,14.08,47.84626,-54.09684
2020-07-06 18:39:01+00:00,164.8032,14.2,14.08,47.84626,-54.09684
2020-07-06 18:49:01+00:00,169.2415,14.19,14.08,47.84626,-54.09684
2020-07-06 18:59:01+00:00,174.0815,14.1,14.08,47.84626,-54.09684
2020-07-06 19:09:01+00:00,179.0048,14.17,14.08,47.84626,-54.09684
2020-07-06 19:19:01+00:00,184.9665,14.1,13.84,47.84626,-54.09684
2020-07-06 19:29:01+00:00,188.8898,14.1,13.84,47.84626,-54.09684
2020-07-06 19:39:01+00:00,191.1581,14.15,13.84,47.84626,-54.09684
2020-07-06 19:49:01+00:00,194.0881,14.2,13.84,47.84626,-54.09684
2020-07-06 19:59:01+00:00,198.8347,14.2,13.84,47.84626,-54.09684
2020-07-06 20:09:01+00:00,204.7431,14.18,13.84,47.84626,-54.09684
2020-07-06 20:19:01+00:00,211.4982,14.09,13.84,47.84626,-54.09684
2020-07-06 20:29:01+00:00,215.3748,14.0,13.84,47.84626,-54.09684
2020-07-06 20:39:01+00:00,218.5614,13.99,13.84,47.84626,-54.09684
2020-07-06 20:49:01+00:00,224.0848,13.99,13.84,47.84626,-54.09684
2020-07-06 20:59:01+00:00,230.2731,14.0,13.84,47.84626,-54.09684
2020-07-06 21:09:01+00:00,235.6331,14.0,13.84,47.84626,-54.09684
2020-07-06 21:19:01+00:00,240.0231,14.0,13.68,47.84626,-54.09684
2020-07-06 21:29:01+00:00,246.5931,14.0,13.68,47.84626,-54.09684
2020-07-06 21:39:01+00:00,254.2714,14.05,13.68,47.84626,-54.09684
2020-07-06 21:49:01+00:00,260.0048,14.08,13.68,47.84626,-54.09684
2020-07-06 21:59:01+00:00,266.0414,14.1,13.68,47.84626,-54.09684
2020-07-06 22:09:01+00:00,272.4997,14.1,13.68,47.84626,-54.09684
2020-07-06 22:19:01+00:00,279.0147,14.1,13.6,47.84626,-54.09684
2020-07-06 22:29:01+00:00,286.3447,14.18,13.6,47.84626,-54.09684
2020-07-06 22:39:01+00:00,297.858,14.2,13.6,47.84626,-54.09684
2020-07-06 22:49:01+00:00,306.7446,14.24,13.6,47.84626,-54.09684
2020-07-06 22:59:01+00:00,311.6813,14.29,13.6,47.84626,-54.09684
2020-07-06 23:09:01+00:00,317.478,14.29,13.6,47.84626,-54.09684
2020-07-06 23:19:01+00:00,326.738,14.2,13.21,47.84626,-54.09684
2020-07-06 23:29:01+00:00,335.0596,14.2,13.21,47.84626,-54.09684
2020-07-06 23:39:01+00:00,343.1330000000001,13.98,13.21,47.84626,-54.09684
2020-07-06 23:49:01+00:00,350.3145,13.1,13.21,47.84626,-54.09684
2020-07-06 23:59:01+00:00,354.0563,12.99,13.21,47.84626,-54.09684
